Zurück zum Katalog

USA 406

AktivMilitärVLEO
NORAD 61027·PAYLOAD·🇺🇸 United States

Gestartet Sep 6, 2024 von Vandenberg Space Force Base

Loading…

Nächste Überflüge (nächste 24 Stunden)

TLE

VeraltetSource: Mike McCants

Epoche: Sep 9, 2026, 20:05 UTC

1 61027U 24160G   26252.83701278 0.00000000  00000-0  00000-0 0    05
2 61027  70.0130 144.3787 0003000 333.1740  26.8260 14.96713958    04

Verfolge USA 406 in Echtzeit mit AllMySat

Download on the App Store